GRMLN LJMS-LJLJ

Flight info

Callsign GRMLN
Flight time 0h 51m
Altitude 2500
Route LJMS DCT VP065 DCT VP059 DCT MS3 DCT CELJE DCT NE DCT LJLJ
Aircraft P28A/L-SFG/C

Departure

Time 2026-04-21 16:57
Airport Murska Sobota Airfield (LJMS)

Arrival

Time 2026-04-21 17:48
Airport Ljubljana Jože Pučnik Airport (LJLJ)
Time Latitude Longitude Altitude Speed Heading
2026-04-21 16:44 46.63055 16.17942 607 ft 0 kts 52°
2026-04-21 16:51 46.63056 16.17945 607 ft 2 kts 76°
2026-04-21 16:51 46.63047 16.17954 612 ft 0 kts 191°
2026-04-21 16:53 46.63046 16.17953 606 ft 3 kts 194°
2026-04-21 16:53 46.63005 16.17930 613 ft 8 kts 223°
2026-04-21 16:53 46.62994 16.17849 603 ft 6 kts 267°
2026-04-21 16:54 46.62996 16.17808 603 ft 4 kts 274°
2026-04-21 16:54 46.62997 16.17760 604 ft 5 kts 269°
2026-04-21 16:54 46.62993 16.17698 604 ft 9 kts 256°
2026-04-21 16:54 46.62978 16.17625 605 ft 9 kts 258°
2026-04-21 16:55 46.62924 16.17559 604 ft 15 kts 193°
2026-04-21 16:55 46.62808 16.17525 603 ft 20 kts 191°
2026-04-21 16:55 46.62696 16.17489 606 ft 15 kts 197°
2026-04-21 16:55 46.62604 16.17453 605 ft 9 kts 192°
2026-04-21 16:56 46.62575 16.17466 612 ft 0 kts
2026-04-21 16:56 46.62576 16.17466 604 ft 2 kts
2026-04-21 16:56 46.62798 16.17524 605 ft 62 kts 10°
2026-04-21 16:56 46.63278 16.17618 820 ft 72 kts
2026-04-21 16:57 46.63788 16.17645 1102 ft 74 kts
2026-04-21 16:57 46.64286 16.17758 1432 ft 67 kts 24°
2026-04-21 16:57 46.64640 16.18184 1721 ft 69 kts 50°
2026-04-21 16:57 46.64813 16.18814 2016 ft 70 kts 73°
2026-04-21 16:58 46.64709 16.19567 2216 ft 87 kts 101°
2026-04-21 16:58 46.64324 16.20351 2331 ft 105 kts 129°
2026-04-21 16:58 46.63664 16.20858 2323 ft 113 kts 159°
2026-04-21 16:58 46.62909 16.21014 2399 ft 111 kts 174°
2026-04-21 16:59 46.62146 16.20804 2423 ft 115 kts 200°
2026-04-21 16:59 46.61465 16.20162 2411 ft 120 kts 221°
2026-04-21 16:59 46.60793 16.19455 2425 ft 120 kts 212°
2026-04-21 16:59 46.60064 16.18876 2421 ft 121 kts 203°
2026-04-21 17:00 46.59267 16.18504 2415 ft 121 kts 193°
2026-04-21 17:00 46.58458 16.18212 2422 ft 119 kts 187°
2026-04-21 17:00 46.57917 16.18081 2404 ft 120 kts 185°
2026-04-21 17:00 46.56807 16.17976 2386 ft 118 kts 177°
2026-04-21 17:01 46.56002 16.18005 2372 ft 116 kts 174°
2026-04-21 17:01 46.55194 16.18081 2337 ft 116 kts 173°
2026-04-21 17:01 46.54385 16.18143 2316 ft 116 kts 173°
2026-04-21 17:01 46.53586 16.18243 2301 ft 115 kts 173°
2026-04-21 17:02 46.52785 16.18209 2309 ft 117 kts 192°
2026-04-21 17:02 46.52054 16.17678 2304 ft 119 kts 215°
2026-04-21 17:02 46.51370 16.16962 2298 ft 122 kts 218°
2026-04-21 17:02 46.50683 16.16252 2295 ft 120 kts 218°
2026-04-21 17:03 46.50020 16.15530 2321 ft 119 kts 212°
2026-04-21 17:03 46.49366 16.14780 2331 ft 119 kts 221°
2026-04-21 17:03 46.48689 16.14101 2369 ft 121 kts 214°
2026-04-21 17:03 46.47981 16.13442 2391 ft 120 kts 214°
2026-04-21 17:04 46.47261 16.12829 2411 ft 122 kts 211°
2026-04-21 17:04 46.46518 16.12222 2420 ft 123 kts 208°
2026-04-21 17:04 46.45781 16.11636 2484 ft 119 kts 208°
2026-04-21 17:04 46.45019 16.11089 2447 ft 123 kts 204°
2026-04-21 17:05 46.44228 16.10626 2470 ft 122 kts 203°
2026-04-21 17:05 46.43424 16.10164 2411 ft 122 kts 202°
2026-04-21 17:05 46.42666 16.09676 2388 ft 118 kts 207°
2026-04-21 17:05 46.41928 16.09152 2339 ft 119 kts 209°
2026-04-21 17:06 46.41216 16.08524 2326 ft 121 kts 213°
2026-04-21 17:06 46.40552 16.07764 2285 ft 123 kts 237°
2026-04-21 17:06 46.40327 16.06643 2350 ft 113 kts 268°
2026-04-21 17:06 46.40221 16.05484 2297 ft 119 kts 268°
2026-04-21 17:07 46.40069 16.04314 2316 ft 115 kts 269°
2026-04-21 17:07 46.39958 16.03165 2284 ft 118 kts 271°
2026-04-21 17:07 46.39647 16.02094 2347 ft 114 kts 246°
2026-04-21 17:07 46.39265 16.01073 2348 ft 116 kts 250°
2026-04-21 17:08 46.38932 16.00018 2357 ft 118 kts 255°
2026-04-21 17:08 46.38638 15.98917 2370 ft 118 kts 258°
2026-04-21 17:08 46.38419 15.97782 2376 ft 116 kts 265°
2026-04-21 17:08 46.38219 15.96656 2376 ft 116 kts 247°
2026-04-21 17:09 46.37200 15.94833 2429 ft 115 kts 238°
2026-04-21 17:09 46.36614 15.94003 2430 ft 120 kts 224°
2026-04-21 17:09 46.36012 15.93189 2457 ft 118 kts 229°
2026-04-21 17:10 46.35461 15.92301 2428 ft 118 kts 234°
2026-04-21 17:10 46.34972 15.91349 2402 ft 120 kts 239°
2026-04-21 17:10 46.34530 15.90329 2410 ft 119 kts 243°
2026-04-21 17:10 46.34072 15.89325 2386 ft 121 kts 242°
2026-04-21 17:11 46.33605 15.88349 2393 ft 116 kts 239°
2026-04-21 17:11 46.33139 15.87381 2385 ft 119 kts 242°
2026-04-21 17:11 46.32695 15.86378 2402 ft 117 kts 244°
2026-04-21 17:11 46.32239 15.85410 2393 ft 116 kts 243°
2026-04-21 17:12 46.31818 15.84421 2397 ft 118 kts 246°
2026-04-21 17:12 46.31434 15.83349 2387 ft 119 kts 253°
2026-04-21 17:12 46.31163 15.82225 2368 ft 119 kts 255°
2026-04-21 17:12 46.30823 15.81179 2384 ft 114 kts 252°
2026-04-21 17:13 46.30522 15.80122 2414 ft 113 kts 258°
2026-04-21 17:13 46.30222 15.79071 2413 ft 116 kts 248°
2026-04-21 17:13 46.29844 15.78015 2413 ft 120 kts 252°
2026-04-21 17:13 46.29486 15.76928 2414 ft 117 kts 250°
2026-04-21 17:14 46.29143 15.75858 2414 ft 117 kts 252°
2026-04-21 17:14 46.28805 15.74801 2407 ft 117 kts 250°
2026-04-21 17:14 46.28445 15.73741 2427 ft 120 kts 250°
2026-04-21 17:14 46.28071 15.72667 2414 ft 121 kts 245°
2026-04-21 17:15 46.27643 15.71657 2424 ft 119 kts 246°
2026-04-21 17:15 46.27241 15.70620 2417 ft 120 kts 244°
2026-04-21 17:15 46.26817 15.69582 2426 ft 119 kts 245°
2026-04-21 17:15 46.26431 15.68536 2410 ft 112 kts 250°
2026-04-21 17:16 46.26030 15.67562 2412 ft 111 kts 243°
2026-04-21 17:16 46.25636 15.66594 2422 ft 113 kts 246°
2026-04-21 17:16 46.25248 15.65597 2419 ft 115 kts 246°
2026-04-21 17:16 46.24847 15.64586 2417 ft 117 kts 246°
2026-04-21 17:17 46.24435 15.63553 2417 ft 120 kts 245°
2026-04-21 17:17 46.24025 15.62503 2420 ft 119 kts 246°
2026-04-21 17:17 46.23611 15.61468 2418 ft 122 kts 246°
2026-04-21 17:17 46.23523 15.60320 2424 ft 114 kts 289°
2026-04-21 17:18 46.23621 15.59173 2424 ft 117 kts 283°
2026-04-21 17:18 46.23671 15.58006 2423 ft 114 kts 282°
2026-04-21 17:18 46.23694 15.56860 2419 ft 113 kts 280°
2026-04-21 17:18 46.23687 15.55738 2423 ft 111 kts 279°
2026-04-21 17:19 46.23680 15.54601 2421 ft 114 kts 278°
2026-04-21 17:19 46.23672 15.53454 2417 ft 114 kts 278°
2026-04-21 17:19 46.23657 15.52315 2420 ft 115 kts 278°
2026-04-21 17:19 46.23643 15.51163 2418 ft 113 kts 278°
2026-04-21 17:20 46.23629 15.50025 2418 ft 114 kts 277°
2026-04-21 17:20 46.23614 15.48880 2416 ft 116 kts 277°
2026-04-21 17:20 46.23591 15.47718 2420 ft 116 kts 278°
2026-04-21 17:20 46.23584 15.46593 2421 ft 109 kts 278°
2026-04-21 17:21 46.23569 15.45481 2418 ft 112 kts 278°
2026-04-21 17:21 46.23558 15.44360 2420 ft 112 kts 278°
2026-04-21 17:21 46.23545 15.43231 2418 ft 114 kts 278°
2026-04-21 17:21 46.23525 15.42080 2416 ft 114 kts 276°
2026-04-21 17:22 46.23508 15.41324 2428 ft 110 kts 278°
2026-04-21 17:22 46.23501 15.39837 2422 ft 113 kts 278°
2026-04-21 17:22 46.23482 15.38693 2419 ft 114 kts 279°
2026-04-21 17:22 46.23466 15.37545 2422 ft 116 kts 278°
2026-04-21 17:23 46.23442 15.36383 2420 ft 115 kts 280°
2026-04-21 17:23 46.23432 15.35236 2421 ft 114 kts 278°
2026-04-21 17:23 46.23425 15.34086 2417 ft 115 kts 279°
2026-04-21 17:23 46.23406 15.32935 2420 ft 113 kts 274°
2026-04-21 17:24 46.23384 15.31816 2415 ft 112 kts 274°
2026-04-21 17:24 46.23370 15.30697 2417 ft 111 kts 275°
2026-04-21 17:24 46.23355 15.29589 2417 ft 111 kts 274°
2026-04-21 17:24 46.23380 15.28477 2417 ft 111 kts 276°
2026-04-21 17:25 46.23384 15.27353 2418 ft 112 kts 277°
2026-04-21 17:25 46.23392 15.26223 2418 ft 113 kts 277°
2026-04-21 17:25 46.23402 15.25077 2416 ft 115 kts 278°
2026-04-21 17:25 46.23415 15.23917 2415 ft 115 kts 276°
2026-04-21 17:26 46.23424 15.22773 2418 ft 114 kts 276°
2026-04-21 17:26 46.23434 15.21635 2418 ft 114 kts 277°
2026-04-21 17:26 46.23443 15.20502 2420 ft 115 kts 277°
2026-04-21 17:26 46.23454 15.19357 2421 ft 113 kts 276°
2026-04-21 17:27 46.23465 15.18224 2417 ft 113 kts 276°
2026-04-21 17:27 46.23479 15.17076 2416 ft 114 kts 275°
2026-04-21 17:27 46.23484 15.15927 2413 ft 114 kts 277°
2026-04-21 17:27 46.23496 15.14782 2416 ft 114 kts 276°
2026-04-21 17:28 46.23504 15.13641 2410 ft 113 kts 275°
2026-04-21 17:28 46.23514 15.12503 2411 ft 114 kts 276°
2026-04-21 17:28 46.23524 15.11381 2411 ft 114 kts 276°
2026-04-21 17:28 46.23534 15.10237 2413 ft 114 kts 276°
2026-04-21 17:29 46.23539 15.09094 2416 ft 114 kts 276°
2026-04-21 17:29 46.23555 15.07945 2417 ft 116 kts 276°
2026-04-21 17:29 46.23564 15.06763 2414 ft 119 kts 277°
2026-04-21 17:29 46.23574 15.05575 2414 ft 119 kts 276°
2026-04-21 17:30 46.23603 15.04375 2521 ft 118 kts 281°
2026-04-21 17:30 46.23718 15.03212 2733 ft 117 kts 286°
2026-04-21 17:30 46.23851 15.02109 3038 ft 108 kts 289°
2026-04-21 17:30 46.24005 15.01055 3268 ft 110 kts 289°
2026-04-21 17:31 46.24083 14.99938 3467 ft 114 kts 282°
2026-04-21 17:31 46.24201 14.98763 3492 ft 118 kts 288°
2026-04-21 17:31 46.24334 14.97588 3456 ft 118 kts 285°
2026-04-21 17:31 46.24364 14.96412 3463 ft 115 kts 275°
2026-04-21 17:32 46.24334 14.95652 3486 ft 115 kts 270°
2026-04-21 17:32 46.24084 14.94150 3606 ft 116 kts 256°
2026-04-21 17:32 46.23801 14.93069 3753 ft 117 kts 253°
2026-04-21 17:32 46.23513 14.92036 4097 ft 105 kts 255°
2026-04-21 17:33 46.23248 14.91071 4324 ft 106 kts 251°
2026-04-21 17:33 46.22944 14.90027 4470 ft 118 kts 252°
2026-04-21 17:33 46.22621 14.88866 4483 ft 127 kts 254°
2026-04-21 17:33 46.22395 14.87701 4484 ft 115 kts 263°
2026-04-21 17:34 46.22250 14.86619 4484 ft 113 kts 266°
2026-04-21 17:34 46.22145 14.85446 4434 ft 122 kts 266°
2026-04-21 17:34 46.22020 14.84270 4482 ft 116 kts 269°
2026-04-21 17:34 46.21939 14.83110 4490 ft 114 kts 271°
2026-04-21 17:35 46.21872 14.81958 4505 ft 117 kts 273°
2026-04-21 17:35 46.21841 14.80791 4512 ft 118 kts 277°
2026-04-21 17:35 46.21857 14.79601 4510 ft 117 kts 276°
2026-04-21 17:35 46.21831 14.78419 4508 ft 120 kts 273°
2026-04-21 17:36 46.21816 14.77217 4511 ft 124 kts 275°
2026-04-21 17:36 46.21827 14.75961 4512 ft 126 kts 276°
2026-04-21 17:36 46.21837 14.74686 4511 ft 128 kts 276°
2026-04-21 17:36 46.21855 14.73394 4510 ft 128 kts 276°
2026-04-21 17:37 46.21862 14.72141 4508 ft 121 kts 275°
2026-04-21 17:37 46.21870 14.70949 4507 ft 117 kts 275°
2026-04-21 17:37 46.21872 14.70175 4510 ft 116 kts 275°
2026-04-21 17:37 46.21889 14.68643 4464 ft 112 kts 275°
2026-04-21 17:38 46.21887 14.67502 4357 ft 113 kts 275°
2026-04-21 17:38 46.21892 14.66383 4238 ft 114 kts 276°
2026-04-21 17:38 46.21889 14.65244 4022 ft 113 kts 274°
2026-04-21 17:38 46.21894 14.64086 3871 ft 113 kts 276°
2026-04-21 17:39 46.21901 14.62980 3705 ft 114 kts 275°
2026-04-21 17:39 46.22116 14.61863 3385 ft 106 kts 299°
2026-04-21 17:39 46.22336 14.60901 3053 ft 114 kts 290°
2026-04-21 17:39 46.22530 14.59768 2903 ft 114 kts 292°
2026-04-21 17:40 46.22761 14.58722 2820 ft 110 kts 292°
2026-04-21 17:40 46.22996 14.57635 2723 ft 113 kts 298°
2026-04-21 17:40 46.23268 14.56571 2606 ft 114 kts 300°
2026-04-21 17:40 46.23598 14.55518 2458 ft 117 kts 300°
2026-04-21 17:41 46.23920 14.54471 2413 ft 110 kts 302°
2026-04-21 17:41 46.24255 14.53506 2343 ft 107 kts 304°
2026-04-21 17:41 46.24608 14.52539 2239 ft 106 kts 305°
2026-04-21 17:41 46.24955 14.51615 2246 ft 102 kts 302°
2026-04-21 17:42 46.25251 14.50650 2351 ft 110 kts 301°
2026-04-21 17:42 46.25613 14.49657 2511 ft 118 kts 302°
2026-04-21 17:42 46.26008 14.48629 2509 ft 114 kts 301°
2026-04-21 17:42 46.26385 14.47639 2511 ft 111 kts 304°
2026-04-21 17:43 46.26771 14.46690 2520 ft 111 kts 306°
2026-04-21 17:43 46.27205 14.45801 2597 ft 107 kts 310°
2026-04-21 17:43 46.27624 14.44930 2607 ft 107 kts 309°
2026-04-21 17:43 46.28072 14.44095 2672 ft 106 kts 306°
2026-04-21 17:44 46.28308 14.43146 2591 ft 96 kts 272°
2026-04-21 17:44 46.28132 14.42251 2481 ft 93 kts 245°
2026-04-21 17:44 46.27841 14.41378 2334 ft 97 kts 242°
2026-04-21 17:44 46.27452 14.40672 2270 ft 84 kts 216°
2026-04-21 17:45 46.27006 14.40130 2152 ft 86 kts 217°
2026-04-21 17:45 46.26526 14.39712 2134 ft 76 kts 197°
2026-04-21 17:45 46.26016 14.39595 2081 ft 73 kts 176°
2026-04-21 17:45 46.25571 14.39815 2007 ft 66 kts 141°
2026-04-21 17:46 46.25254 14.40298 1938 ft 66 kts 135°
2026-04-21 17:46 46.24956 14.40817 1856 ft 67 kts 132°
2026-04-21 17:46 46.24660 14.41354 1761 ft 68 kts 129°
2026-04-21 17:46 46.24386 14.41861 1646 ft 61 kts 133°
2026-04-21 17:47 46.24125 14.42314 1568 ft 58 kts 131°
2026-04-21 17:47 46.23893 14.42814 1518 ft 64 kts 130°
2026-04-21 17:47 46.23627 14.43332 1478 ft 60 kts 133°
2026-04-21 17:47 46.23403 14.43763 1380 ft 51 kts 131°
2026-04-21 17:48 46.23264 14.44027 1314 ft 50 kts 130°
2026-04-21 17:48 46.23031 14.44486 1267 ft 32 kts 119°
2026-04-21 17:48 46.22897 14.44749 1262 ft 32 kts 126°
2026-04-21 17:48 46.22764 14.45004 1256 ft 32 kts 128°
2026-04-21 17:49 46.22639 14.45243 1254 ft 24 kts 126°
2026-04-21 17:49 46.22538 14.45440 1255 ft 26 kts 127°
2026-04-21 17:49 46.22438 14.45637 1253 ft 25 kts 126°
2026-04-21 17:49 46.22332 14.45839 1239 ft 26 kts 127°
2026-04-21 17:50 46.22234 14.46034 1238 ft 16 kts 126°
2026-04-21 17:50 46.22240 14.46114 1239 ft 9 kts 38°
2026-04-21 17:50 46.22302 14.46180 1248 ft 14 kts 36°
2026-04-21 17:50 46.22361 14.46224 1235 ft 8 kts 340°
2026-04-21 17:51 46.22408 14.46145 1237 ft 12 kts 309°
2026-04-21 17:51 46.22466 14.46029 1247 ft 12 kts 306°
2026-04-21 17:51 46.22525 14.45918 1241 ft 14 kts 306°
2026-04-21 17:51 46.22579 14.45812 1254 ft 14 kts 305°
2026-04-21 17:52 46.22623 14.45774 1245 ft 7 kts 28°
2026-04-21 17:52 46.22661 14.45816 1246 ft 4 kts 38°
2026-04-21 17:52 46.22677 14.45834 1246 ft 0 kts 36°
2026-04-21 17:52 46.22680 14.45837 1256 ft 3 kts 35°
2026-04-21 17:53 46.22715 14.45872 1246 ft 7 kts 36°
2026-04-21 17:53 46.22707 14.45916 1257 ft 7 kts 125°
2026-04-21 17:53 46.22700 14.45958 1252 ft 5 kts 26°
2026-04-21 17:53 46.22697 14.45987 1244 ft 4 kts 120°
2026-04-21 17:54 46.22694 14.45996 1244 ft 1 kts 126°
2026-04-21 17:54 46.22691 14.46000 1244 ft 0 kts 127°